Terminal Aerodrome Forecast
Issued by NWS

Home | Current Version | Previous Version | Text Only | Print | Product List | Glossary On
Versions: 1 2 3 4 5 6 7 8 9 10 11 12 13 14 15 16 17 18 19 20 21 22 23 24 25 26 27 28 29 30
000
FTUS45 KSLC 302328
TAFSGU
TAF
KSGU 302328Z 3100/3124 28008KT P6SM VCSH SCT110 BKN180
      TEMPO 3100/3102 VRB15G25KT -SHRA SCT100 BKN150
     FM310400 VRB04KT P6SM FEW110 BKN150
     FM312100 25008KT P6SM SCT100 SCT150
      AMD LTD TO CLD VIS AND WIND=

USA.gov is the U.S. government's official web portal to all federal, state and local government web resources and services.